[[{"header":{"parameterUnit":"m.s-1","parameterCategory":1,"la1":30.2991,"la2":30.254,"lo1":-89.0895,"lo2":-89.0444,"dy":0.0017,"dx":0.0017,"nx":28,"ny":28,"refTime":"2024-10-02T21:00:00:Z","depth":0,"parameterNumber":2,"parameterNumberName":"U-component_of_WINDS"},"data":[0,0,0,0,0,0,0,0,0,0,0,0,0,0,0,0,0,0,0,0,0,0,0,0,0,0,0,0,0,0,0,0,0,0,0,0,0,0,0,0,0,0,0,0,0,0,0,0,0,0,0,0,0,0,0,0,0,0,-0.8073,-0.8073,0,-0.8071,-0.8071,-0.8071,-0.802,-0.8019,-0.8017,-0.8016,-0.8016,-0.8017,-0.8018,0,0,0,0,0,0,0,0,0,0,0,0,0,-0.8033,-0.8034,-0.8073,-0.8073,-0.8073,-0.8071,-0.8071,-0.8071,-0.802,-0.8019,-0.8017,-0.8015,-0.8015,-0.8017,-0.8018,0,0,0,0,0,0,0,0,0,0,0,0,0,-0.8043,-0.8034,-0.8073,-0.8047,-0.8045,-0.8071,-0.8071,-0.8071,-0.802,-0.8019,-0.8017,-0.8015,-0.8015,-0.8016,-0.8018,-0.8069,0,0,-0.8024,-0.8025,0,0,0,0,0,0,0,0,-0.8042,-0.8044,-0.8051,-0.8049,-0.8046,-0.8044,-0.8057,-0.807,-0.8021,-0.803,-0.8016,-0.8014,-0.8027,-0.8027,-0.8031,-0.8069,-0.8069,-0.8024,-0.8025,-0.8026,-0.8026,0,0,0,0,0,0,0,-0.8042,-0.8044,-0.8072,-0.8051,-0.8048,-0.8036,-0.8035,-0.8059,-0.8039,-0.8029,-0.8025,-0.8026,-0.8025,-0.803,-0.8031,-0.8069,-0.8024,-0.8026,-0.8027,-0.8027,-0.8149,-0.8151,0,0,0,0,0,0,-0.8044,-0.8044,-0.8072,-0.8072,-0.8039,-0.8038,-0.8037,-0.8047,-0.8039,-0.8036,-0.8027,-0.8023,-0.8028,-0.8029,-0.8031,-0.8091,-0.8026,-0.8028,-0.8029,-0.8147,-0.815,-0.8152,0,0,0,0,0,0,-0.8044,-0.8047,-0.8072,-0.8057,-0.8059,-0.8041,-0.8052,-0.8048,-0.8052,-0.8038,-0.8034,-0.8036,-0.8026,-0.8028,-0.806,-0.809,-0.8028,-0.803,-0.8145,-0.8148,-0.8151,-0.8211,0,0,0,0,0,0,-0.8043,-0.8047,-0.8066,-0.8058,-0.806,-0.8102,-0.8054,-0.8049,-0.8055,-0.805,-0.8045,-0.8042,-0.8025,-0.8058,-0.8062,-0.8091,-0.8031,-0.8142,-0.8146,-0.815,-0.8206,-0.8216,-0.8224,0,0,0,0,0,-0.8041,-0.8084,-0.8068,-0.8071,-0.8083,-0.8103,-0.8105,-0.8084,-0.8058,-0.8077,-0.8068,-0.8042,-0.8086,-0.8061,-0.8066,-0.8096,-0.814,-0.8145,-0.8149,-0.8202,-0.8214,-0.8224,0,0,0,0,0,0,-0.8097,-0.8082,-0.8064,-0.8105,-0.8106,-0.8095,-0.8118,-0.8097,-0.8105,-0.81,-0.8074,-0.8073,-0.8109,-0.8105,-0.8079,-0.8145,-0.8108,-0.8114,-0.8147,-0.8158,-0.8166,-0.8167,-0.8033,0,0,0,0,0,-0.8114,-0.8131,-0.8117,-0.8154,-0.8155,-0.8137,-0.8145,-0.8128,-0.8128,-0.8129,-0.8121,-0.8123,-0.8137,-0.8147,-0.8159,-0.8205,-0.8203,-0.8228,-0.8237,-0.8244,-0.825,-0.8275,-0.8286,-0.8168,-0.8168,-0.8168,0,0,-0.8149,-0.8143,-0.8155,-0.8165,-0.8164,-0.8182,-0.8137,-0.8159,-0.8173,-0.8132,-0.8162,-0.8157,-0.8156,-0.8196,-0.8213,-0.8194,-0.8282,-0.825,-0.8256,-0.8258,-0.8281,-0.8292,-0.8302,-0.8171,-0.817,-0.817,0,0,-0.8223,-0.822,-0.8251,-0.825,-0.8249,-0.8236,-0.8243,-0.8236,-0.8231,-0.826,-0.823,-0.8246,-0.827,-0.8271,-0.8275,-0.8349,-0.8326,-0.8354,-0.8401,-0.8426,-0.8435,-0.8443,-0.8471,-0.8481,-0.8359,-0.8359,-0.836,0,-0.8267,-0.8294,-0.8269,-0.8293,-0.8299,-0.8261,-0.8293,-0.8293,-0.8296,-0.8301,-0.8279,-0.831,-0.8307,-0.8346,-0.8364,-0.8368,-0.8377,-0.8355,-0.8435,-0.8443,-0.8451,-0.8477,-0.8487,-0.8363,-0.8363,-0.8362,-0.8362,0,-0.8349,-0.8368,-0.8393,-0.8397,-0.8405,-0.8432,-0.8412,-0.8423,-0.8405,-0.8395,-0.8426,-0.8421,-0.8432,-0.8439,-0.8422,-0.8477,-0.8465,-0.844,-0.8402,-0.8466,-0.849,-0.85,-0.8368,-0.8367,-0.8366,-0.8365,0,0,-0.846,-0.8449,-0.8458,-0.846,-0.8455,-0.8469,-0.8495,-0.8505,-0.8516,-0.8518,-0.854,-0.8561,-0.8538,-0.8542,-0.8525,-0.8546,-0.8607,-0.8518,-0.8518,-0.8536,-0.8668,-0.8688,-0.87,-0.8591,-0.8592,-0.8594,-0.8668,0,-0.8533,-0.8576,-0.8555,-0.8601,-0.8619,-0.8583,-0.8606,-0.8605,-0.8596,-0.861,-0.86,-0.8616,-0.8583,-0.8585,-0.8605,-0.8595,-0.8633,-0.8589,-0.8612,-0.8613,-0.8615,-0.8712,-0.8734,-0.8805,-0.8677,-0.8679,-0.868,0,-0.8624,-0.8631,-0.8679,-0.8671,-0.8678,-0.8699,-0.8706,-0.8719,-0.8718,-0.871,-0.8715,-0.8693,-0.8718,-0.8679,-0.8714,-0.8685,-0.8692,-0.8689,-0.8691,-0.8694,-0.8652,-0.872,-0.8827,-0.8838,-0.8694,-0.8693,-0.8692,0,-0.8702,-0.8723,-0.8755,-0.8757,-0.8748,-0.8763,-0.8761,-0.8757,-0.8765,-0.8771,-0.8776,-0.8785,-0.8791,-0.8799,-0.878,-0.8753,-0.8818,-0.8777,-0.8813,-0.8813,-0.883,-0.8829,-0.8941,-0.8831,-0.8831,-0.8831,-0.8831,0,-0.8787,-0.8819,-0.879,-0.881,-0.8844,-0.8818,-0.8852,-0.8845,-0.8843,-0.8861,-0.883,-0.8848,-0.8821,-0.8836,-0.8821,-0.8853,-0.8855,-0.885,-0.8846,-0.8854,-0.8855,-0.886,-0.8855,-0.8834,-0.8833,-0.8833,-0.8832,0,-0.8881,-0.8863,-0.8895,-0.8884,-0.8882,-0.8908,-0.8898,-0.8916,-0.8904,-0.8928,-0.8932,-0.8913,-0.893,-0.8911,-0.8925,-0.8915,-0.8959,-0.8947,-0.896,-0.8957,-0.8994,-0.8992,-0.9115,-0.913,-0.9009,-0.901,-0.9011,0,-0.8938,-0.8961,-0.8952,-0.8962,-0.8961,-0.8977,-0.8984,-0.8959,-0.8968,-0.8969,-0.8987,-0.9,-0.901,-0.9037,-0.9026,-0.9037,-0.9026,-0.9068,-0.9028,-0.9035,-0.9029,-0.9028,-0.9031,-0.9077,-0.9079,-0.908,-0.9081,0,-0.904,-0.903,-0.9042,-0.905,-0.906,-0.9065,-0.9069,-0.9079,-0.9052,-0.9064,-0.908,-0.9088,-0.9102,-0.9117,-0.9124,-0.9121,-0.9098,-0.9093,-0.9103,-0.9112,-0.9119,-0.9118,-0.8984,-0.9091,-0.909,-0.909,-0.9089,-0.9089,-0.9119,-0.9138,-0.9135,-0.9149,-0.9148,-0.9152,-0.9169,-0.9159,-0.9171,-0.9182,-0.9166,-0.9186,-0.9184,-0.9192,-0.9192,-0.9208,-0.919,-0.9203,-0.9206,-0.921,-0.9217,-0.9115,-0.9209,-0.9209,-0.9208,-0.9208,-0.9208,0,-0.9221,-0.9217,-0.923,-0.9236,-0.9247,-0.9222,-0.9224,-0.9235,-0.9254,-0.9254,-0.9264,-0.9282,-0.9296,-0.9285,-0.9296,-0.9311,-0.93,-0.9315,-0.9315,-0.9315,-0.9231,-0.9223,-0.9323,-0.9323,-0.9323,-0.9323,-0.9323,-0.9323,-0.9276,-0.9308,-0.9297,-0.9328,-0.9324,-0.9344,-0.9347,-0.9351,-0.9351,-0.9373,-0.9384,-0.9376,-0.9372,-0.9382,-0.9394,-0.939,-0.9396,-0.9415,-0.9408,-0.9331,-0.932,-0.9309,-0.9302,-0.9417,-0.9417,-0.949,-0.9491,-0.9491]},{"header":{"parameterUnit":"m.s-1","parameterCategory":1,"la1":30.2991,"la2":30.254,"lo1":-89.0895,"lo2":-89.0444,"dy":0.0017,"dx":0.0017,"nx":28,"ny":28,"refTime":"2024-10-02T21:00:00:Z","depth":0,"parameterNumber":3,"parameterNumberName":"V-component_of_WINDS"},"data":[0,0,0,0,0,0,0,0,0,0,0,0,0,0,0,0,0,0,0,0,0,0,0,0,0,0,0,0,0,0,0,0,0,0,0,0,0,0,0,0,0,0,0,0,0,0,0,0,0,0,0,0,0,0,0,0,0,0,-1.6139,-1.6139,0,-1.6165,-1.6165,-1.6166,-1.6154,-1.6153,-1.6153,-1.6152,-1.6178,-1.6179,-1.618,0,0,0,0,0,0,0,0,0,0,0,0,0,-1.6077,-1.6078,-1.6139,-1.6139,-1.6139,-1.6165,-1.6165,-1.6166,-1.6154,-1.6153,-1.6153,-1.6152,-1.6177,-1.6179,-1.618,0,0,0,0,0,0,0,0,0,0,0,0,0,-1.6104,-1.6079,-1.6139,-1.6137,-1.6137,-1.6165,-1.6165,-1.6166,-1.6154,-1.6153,-1.6152,-1.6151,-1.6177,-1.6178,-1.618,-1.6212,0,0,-1.6186,-1.6187,0,0,0,0,0,0,0,0,-1.6102,-1.6106,-1.6137,-1.6137,-1.6137,-1.6155,-1.6153,-1.6181,-1.6155,-1.6148,-1.6152,-1.6151,-1.6171,-1.6173,-1.618,-1.6213,-1.6214,-1.6186,-1.6188,-1.6188,-1.6189,0,0,0,0,0,0,0,-1.61,-1.6105,-1.6149,-1.6137,-1.6137,-1.6134,-1.6137,-1.6158,-1.6164,-1.6148,-1.6147,-1.6151,-1.6171,-1.6178,-1.6181,-1.6214,-1.6186,-1.6188,-1.6189,-1.619,-1.6273,-1.6274,0,0,0,0,0,0,-1.6099,-1.6103,-1.6148,-1.615,-1.6117,-1.6136,-1.6139,-1.615,-1.6164,-1.6165,-1.6152,-1.615,-1.6176,-1.6178,-1.6182,-1.6219,-1.6188,-1.619,-1.6191,-1.6272,-1.6274,-1.6275,0,0,0,0,0,0,-1.6098,-1.6103,-1.6147,-1.6126,-1.6132,-1.6138,-1.6151,-1.6151,-1.6159,-1.6167,-1.6167,-1.6158,-1.6175,-1.6179,-1.6204,-1.6219,-1.6191,-1.6193,-1.6271,-1.6273,-1.6274,-1.6293,0,0,0,0,0,0,-1.6096,-1.6103,-1.6115,-1.6127,-1.6133,-1.617,-1.6152,-1.6153,-1.6163,-1.6161,-1.6173,-1.6174,-1.6174,-1.6201,-1.6206,-1.6221,-1.6194,-1.627,-1.6272,-1.6274,-1.6291,-1.6295,-1.6299,0,0,0,0,0,-1.6094,-1.6119,-1.6115,-1.6121,-1.6148,-1.6171,-1.6174,-1.6174,-1.6164,-1.6176,-1.6181,-1.6174,-1.6217,-1.6204,-1.6209,-1.6225,-1.6269,-1.6271,-1.6273,-1.6289,-1.6294,-1.6299,0,0,0,0,0,0,-1.6108,-1.612,-1.6117,-1.6147,-1.6158,-1.6169,-1.6184,-1.618,-1.6194,-1.6192,-1.6191,-1.6194,-1.622,-1.6225,-1.6211,-1.6256,-1.6241,-1.6245,-1.6252,-1.6256,-1.626,-1.6258,-1.6196,0,0,0,0,0,-1.6114,-1.6132,-1.6142,-1.6167,-1.6173,-1.6178,-1.6187,-1.6187,-1.6198,-1.6202,-1.6209,-1.622,-1.6236,-1.6247,-1.6262,-1.6292,-1.6294,-1.6306,-1.631,-1.6313,-1.6315,-1.6332,-1.6337,-1.6283,-1.6283,-1.6283,0,0,-1.6128,-1.6137,-1.6148,-1.617,-1.6179,-1.6197,-1.6182,-1.6201,-1.6214,-1.6205,-1.623,-1.6235,-1.6247,-1.6275,-1.6288,-1.628,-1.6331,-1.6316,-1.6318,-1.6319,-1.6335,-1.634,-1.6344,-1.6284,-1.6284,-1.6284,0,0,-1.6162,-1.6171,-1.6193,-1.6202,-1.6215,-1.6218,-1.6224,-1.6236,-1.6239,-1.6263,-1.6257,-1.6273,-1.63,-1.6309,-1.6317,-1.6355,-1.6349,-1.636,-1.6379,-1.6395,-1.6399,-1.6403,-1.6416,-1.6421,-1.6363,-1.6363,-1.6363,0,-1.6177,-1.6204,-1.6205,-1.6225,-1.6234,-1.6228,-1.625,-1.6258,-1.6276,-1.6283,-1.6274,-1.6309,-1.6317,-1.6347,-1.6356,-1.6363,-1.6368,-1.6358,-1.6399,-1.6402,-1.6406,-1.6418,-1.6423,-1.6364,-1.6364,-1.6364,-1.6364,0,-1.6222,-1.6241,-1.6257,-1.6274,-1.6286,-1.6307,-1.631,-1.6322,-1.632,-1.6324,-1.6349,-1.6358,-1.6375,-1.6382,-1.638,-1.6412,-1.6407,-1.6399,-1.6383,-1.6412,-1.6424,-1.6429,-1.6366,-1.6365,-1.6365,-1.6365,0,0,-1.6265,-1.6283,-1.6288,-1.6296,-1.6311,-1.6325,-1.6346,-1.6363,-1.6372,-1.6385,-1.6402,-1.6426,-1.6418,-1.6427,-1.6427,-1.6441,-1.647,-1.6431,-1.6431,-1.6437,-1.6504,-1.651,-1.6515,-1.6466,-1.6467,-1.6468,-1.6503,0,-1.6299,-1.6336,-1.6337,-1.637,-1.6387,-1.6381,-1.6399,-1.641,-1.6414,-1.6429,-1.6433,-1.645,-1.6439,-1.6445,-1.6458,-1.6463,-1.6483,-1.6461,-1.6481,-1.6482,-1.6478,-1.6521,-1.6527,-1.656,-1.6508,-1.6508,-1.6509,0,-1.6344,-1.6359,-1.6393,-1.6406,-1.6413,-1.6429,-1.6444,-1.6459,-1.6471,-1.6473,-1.6483,-1.6481,-1.6501,-1.6486,-1.6514,-1.6499,-1.6508,-1.6511,-1.6513,-1.6514,-1.6497,-1.6523,-1.657,-1.6575,-1.6516,-1.6516,-1.6515,0,-1.6371,-1.6399,-1.6424,-1.6431,-1.6446,-1.6457,-1.6464,-1.6475,-1.6485,-1.6498,-1.6505,-1.6521,-1.6529,-1.6541,-1.6543,-1.6532,-1.6571,-1.6556,-1.6573,-1.6573,-1.6581,-1.658,-1.6629,-1.6587,-1.6587,-1.6587,-1.6587,0,-1.6409,-1.6431,-1.6436,-1.6451,-1.6475,-1.6476,-1.6499,-1.6505,-1.6515,-1.6531,-1.6527,-1.6542,-1.6543,-1.6558,-1.656,-1.6583,-1.6587,-1.6588,-1.6588,-1.6588,-1.6588,-1.6593,-1.6591,-1.6588,-1.6588,-1.6588,-1.6588,0,-1.6443,-1.6448,-1.6474,-1.6486,-1.649,-1.6507,-1.6517,-1.6531,-1.6535,-1.6555,-1.656,-1.6566,-1.6583,-1.6586,-1.6607,-1.6608,-1.6635,-1.6633,-1.6631,-1.6631,-1.6647,-1.6645,-1.6701,-1.6708,-1.6662,-1.6662,-1.6663,0,-1.6467,-1.6484,-1.6498,-1.6508,-1.6515,-1.6532,-1.6543,-1.6545,-1.6556,-1.6571,-1.6583,-1.66,-1.6614,-1.6642,-1.6648,-1.6664,-1.6662,-1.668,-1.6664,-1.6664,-1.6661,-1.666,-1.6662,-1.6683,-1.6684,-1.6684,-1.6684,0,-1.6509,-1.651,-1.6526,-1.6542,-1.6555,-1.6568,-1.658,-1.6588,-1.6592,-1.6604,-1.6622,-1.6633,-1.6655,-1.6672,-1.6687,-1.6694,-1.669,-1.669,-1.6694,-1.6694,-1.6692,-1.6693,-1.6639,-1.6688,-1.6688,-1.6687,-1.6687,-1.6687,-1.6538,-1.6552,-1.6564,-1.6581,-1.6591,-1.6603,-1.6616,-1.6622,-1.6638,-1.6655,-1.6656,-1.6675,-1.6687,-1.6708,-1.6715,-1.673,-1.6724,-1.6731,-1.6733,-1.6734,-1.6735,-1.669,-1.6733,-1.6733,-1.6733,-1.6733,-1.6733,0,-1.6578,-1.6586,-1.6602,-1.662,-1.6633,-1.6629,-1.6642,-1.6653,-1.6671,-1.6682,-1.6696,-1.6717,-1.6734,-1.6741,-1.6758,-1.6768,-1.6767,-1.6772,-1.6771,-1.6773,-1.674,-1.6734,-1.6773,-1.6773,-1.6773,-1.6773,-1.6773,-1.6773,-1.6601,-1.6625,-1.6628,-1.6656,-1.6664,-1.6683,-1.6691,-1.6702,-1.6711,-1.6734,-1.6748,-1.6753,-1.6763,-1.678,-1.6795,-1.6797,-1.6803,-1.6809,-1.681,-1.6779,-1.6775,-1.6771,-1.6766,-1.6811,-1.6811,-1.6841,-1.6842,-1.6842]}]]